Clemson, SC

10:34 PM EST on November 18, 2017 (GMT -0500)
Oconee County Regional

Weather History for KCEU - October, 2011

Change the Weather History Date:

Thursday, October 6, 2011

  Actual Average Record
Temperature  
Mean Temperature 68 °F -  
Max Temperature 79 °F 78 °F 96 °F (1954)
Min Temperature 57 °F 49 °F 36 °F (1964)
Cooling Degree Days 3    
Growing Degree Days 18 (Base 50)    
Moisture  
Dew Point 53 °F    
Average Humidity 62    
Maximum Humidity 87    
Minimum Humidity 35    
Precipitation  
Precipitation 0.01 in - - ()
Sea Level Pressure  
Sea Level Pressure 30.29 in    
Wind  
Wind Speed 3 mph (NE)    
Max Wind Speed 10 mph    
Max Gust Speed -    
Visibility 10 miles    
Events      
Averages and records for this station are not official NWS values.
T = Trace of Precipitation, MM = Missing Value Source: NWS Daily Summary

Daily Weather History Graph

Daily Weather History Graph

Search for Another Location

Airport or City:

Trip Planner

Search our weather history database for the weather conditions in past years. The results will help you decide how hot, cold, wet, or windy it might be!

Date:

Astronomy

Oct. 06, 2011 Rise Set
Actual Time 7:29 AM EDT 7:09 PM EDT
Civil Twilight 7:04 AM EDT 7:34 PM EDT
Nautical Twilight 6:35 AM EDT 8:03 PM EDT
Astronomical Twilight 6:06 AM EDT 8:32 PM EDT
Moon 4:11 PM EDT (10/6) 2:29 AM EDT (10/6)
Length of Visible Light 12h 29m
Length of Day
11h 39m
Waxing Gibbous, 75% of the Moon is Illuminated
Oct 6
Waxing Gibbous
Oct 11
Full
Oct 19
Last Quarter
Oct 26
New
Nov 2
First Quarter

Hourly Weather History & Observations

Time (EDT) Temp. Dew Point Humidity Pressure Visibility Wind Dir Wind Speed Gust Speed Precip Events Conditions
12:54 AM 62.1 °F 57.0 °F 84% 30.23 in 10.0 mi Calm Calm - N/A   Clear
1:54 AM 62.1 °F 55.9 °F 80% 30.23 in 10.0 mi North 3.5 mph - N/A   Clear
2:54 AM 61.0 °F 57.0 °F 87% 30.24 in 10.0 mi Calm Calm - N/A   Clear
3:54 AM 59.0 °F 55.0 °F 87% 30.23 in 9.0 mi Calm Calm - N/A   Clear
4:54 AM 60.1 °F 55.9 °F 86% 30.24 in 10.0 mi Calm Calm - N/A   Clear
5:54 AM 57.9 °F 54.0 °F 87% 30.26 in 10.0 mi Calm Calm - N/A   Clear
6:54 AM 59.0 °F 53.1 °F 81% 30.28 in 10.0 mi North 3.5 mph - N/A   Clear
7:54 AM 57.9 °F 53.1 °F 84% 30.30 in 10.0 mi Calm Calm - 0.01 in   Clear
8:54 AM 62.1 °F 54.0 °F 75% 30.32 in 10.0 mi NNE 4.6 mph - N/A   Clear
9:54 AM 66.0 °F 54.0 °F 65% 30.33 in 10.0 mi NNE 5.8 mph - N/A   Clear
10:54 AM 73.0 °F 53.1 °F 49% 30.34 in 10.0 mi ENE 10.4 mph - N/A   Clear
11:54 AM 75.0 °F 48.9 °F 40% 30.33 in 10.0 mi East 10.4 mph - N/A   Clear
12:54 PM 75.9 °F 48.9 °F 38% 30.32 in 10.0 mi Variable 6.9 mph - N/A   Clear
1:54 PM 77.0 °F 50.0 °F 39% 30.30 in 10.0 mi Variable 5.8 mph - N/A   Clear
2:54 PM 79.0 °F 48.9 °F 35% 30.28 in 10.0 mi NE 10.4 mph - N/A   Clear
3:54 PM 79.0 °F 50.0 °F 36% 30.27 in 10.0 mi East 6.9 mph - N/A   Clear
4:54 PM 78.1 °F 51.1 °F 39% 30.27 in 10.0 mi East 3.5 mph - N/A   Clear
5:54 PM 77.0 °F 51.1 °F 40% 30.27 in 10.0 mi Variable 5.8 mph - N/A   Clear
6:54 PM 73.0 °F 52.0 °F 48% 30.28 in 10.0 mi Calm Calm - N/A   Clear
7:54 PM 71.1 °F 53.1 °F 53% 30.29 in 10.0 mi Calm Calm - N/A   Clear
8:54 PM 68.0 °F 55.0 °F 63% 30.31 in 10.0 mi ENE 3.5 mph - N/A   Clear
9:54 PM 64.9 °F 54.0 °F 68% 30.32 in 10.0 mi Calm Calm - N/A   Clear
10:54 PM 64.0 °F 53.1 °F 67% 30.33 in 10.0 mi NNE 3.5 mph - N/A   Clear
11:54 PM 64.0 °F 53.1 °F 67% 30.33 in 10.0 mi NNE 4.6 mph - N/A   Clear